Location: Newark
(9.4667°S, 159.8167°E)
Time: 10:39:59
(UTC+00:00)

Vanguard 1 - Pass Details

Date: 17 November 2019
Orbit: 651 x 3832 km, 34.3° (Epoch: 15 December)

Event Time Altitude Azimuth Distance (km) Brightness Sun altitude
Rises 14:52:02 0° 240° (WSW) 6,628 14.2 -51.3°
Reaches altitude 10° 14:56:50 10° 231° (SW) 6,010 14.0 -50.5°
Maximum altitude 15:15:02 35° 170° (S) 5,076 13.7 -47.3°
Drops below altitude 10° 15:35:08 10° 110° (ESE) 6,624 14.8 -43.4°
Sets 15:40:46 0° 101° (E) 7,348 15.2 -42.3°
